[[{"header":{"parameterUnit":"m.s-1","parameterCategory":1,"la1":30.2991,"la2":30.254,"lo1":-89.0895,"lo2":-89.0444,"dy":0.0017,"dx":0.0017,"nx":28,"ny":28,"refTime":"2025-12-27T03:00:00:Z","depth":0,"parameterNumber":2,"parameterNumberName":"U-component_of_WINDS"},"data":[0,0,0,0,0,0,0,0,0,0,0,0,0,0,0,0,0,0,0,0,0,0,0,0,0,0,0,0,0,0,0,0,0,0,0,0,0,0,0,0,0,0,0,0,0,0,0,0,0,0,0,0,0,0,0,0,0,0,0.8105,0.8106,0,0.8167,0.8168,0.8169,0.8176,0.8175,0.8174,0.8174,0.8237,0.8239,0.8241,0,0,0,0,0,0,0,0,0,0,0,0,0,0.7992,0.7994,0.8105,0.8106,0.8107,0.8167,0.8168,0.8169,0.8176,0.8175,0.8174,0.8173,0.8236,0.8239,0.8242,0,0,0,0,0,0,0,0,0,0,0,0,0,0.8046,0.7995,0.8105,0.8117,0.8119,0.8167,0.8168,0.8169,0.8176,0.8175,0.8174,0.8173,0.8235,0.8239,0.8242,0.8282,0,0,0.8252,0.8254,0,0,0,0,0,0,0,0,0.8043,0.805,0.8115,0.8117,0.8119,0.8163,0.8151,0.8207,0.8176,0.8154,0.8174,0.8173,0.8213,0.8218,0.8232,0.8285,0.8287,0.8253,0.8255,0.8256,0.8257,0,0,0,0,0,0,0,0.8039,0.8048,0.813,0.8116,0.8118,0.812,0.8126,0.8162,0.8188,0.8156,0.8157,0.8164,0.8214,0.8229,0.8233,0.8288,0.8253,0.8256,0.8258,0.8259,0.8376,0.8377,0,0,0,0,0,0,0.8033,0.8045,0.8128,0.8132,0.8078,0.8122,0.813,0.815,0.8188,0.8193,0.8165,0.8164,0.8223,0.8229,0.8236,0.8285,0.8256,0.8259,0.8261,0.8375,0.8376,0.8378,0,0,0,0,0,0,0.8031,0.8041,0.8125,0.8088,0.8099,0.8125,0.8147,0.8151,0.8166,0.8194,0.8199,0.8175,0.8223,0.8231,0.827,0.8287,0.8261,0.8264,0.8374,0.8375,0.8377,0.8383,0,0,0,0,0,0,0.8028,0.804,0.8055,0.8089,0.8101,0.8159,0.8148,0.8153,0.8172,0.8172,0.8205,0.821,0.8223,0.8265,0.8273,0.8291,0.8267,0.8372,0.8375,0.8376,0.8381,0.8385,0.8387,0,0,0,0,0,0.8024,0.8055,0.8056,0.8066,0.8121,0.816,0.8167,0.8181,0.8173,0.8189,0.8207,0.8209,0.8283,0.8269,0.8278,0.8297,0.8371,0.8374,0.8376,0.838,0.8384,0.8387,0,0,0,0,0,0,0.8023,0.8059,0.8061,0.8104,0.8129,0.8161,0.8182,0.8185,0.8213,0.8211,0.8227,0.8235,0.8273,0.8289,0.8272,0.8338,0.8327,0.8331,0.8326,0.833,0.8333,0.8329,0.8269,0,0,0,0,0,0.8028,0.8056,0.8086,0.8121,0.8133,0.8155,0.8173,0.8181,0.8208,0.8218,0.8239,0.8264,0.8294,0.8313,0.8341,0.8383,0.8391,0.8401,0.8404,0.8406,0.841,0.8434,0.8439,0.8385,0.8385,0.8385,0,0,0.8038,0.8061,0.8078,0.8122,0.8142,0.8171,0.8164,0.8195,0.8217,0.8223,0.8262,0.8277,0.8307,0.8348,0.8367,0.8362,0.8426,0.8409,0.8411,0.8414,0.8437,0.8442,0.8446,0.8387,0.8387,0.8387,0,0,0.8072,0.8092,0.8123,0.8144,0.8174,0.8189,0.8196,0.8228,0.8239,0.8277,0.8282,0.8308,0.8358,0.8379,0.8396,0.8436,0.8439,0.8445,0.8461,0.8483,0.8488,0.8491,0.8506,0.8511,0.8448,0.8448,0.8448,0,0.8081,0.8125,0.8139,0.817,0.8189,0.8195,0.8227,0.8246,0.8284,0.8297,0.8291,0.8353,0.8373,0.8419,0.8429,0.8442,0.8451,0.8442,0.8486,0.849,0.8493,0.8508,0.8513,0.8449,0.8449,0.8449,0.8449,0,0.8134,0.8165,0.8187,0.8224,0.8245,0.8276,0.8294,0.8314,0.832,0.8335,0.8374,0.8398,0.8432,0.8443,0.845,0.849,0.8486,0.8482,0.8472,0.8499,0.8513,0.8518,0.845,0.845,0.8449,0.8449,0,0,0.8171,0.8214,0.8222,0.8239,0.8273,0.8297,0.8328,0.836,0.8377,0.8403,0.8429,0.8471,0.8468,0.8487,0.8496,0.8516,0.8547,0.851,0.8511,0.8517,0.8592,0.8595,0.8601,0.8548,0.8549,0.855,0.859,0,0.8209,0.8265,0.8278,0.8326,0.8355,0.8361,0.8388,0.8411,0.8425,0.8451,0.8467,0.8496,0.849,0.8502,0.8521,0.8539,0.8562,0.8536,0.8573,0.8574,0.8567,0.8608,0.8612,0.8648,0.8595,0.8596,0.8597,0,0.8261,0.8288,0.8339,0.8369,0.8382,0.8406,0.8437,0.8461,0.8488,0.8497,0.8518,0.8524,0.8557,0.8543,0.8588,0.857,0.8586,0.8596,0.8598,0.8603,0.8588,0.8615,0.866,0.8666,0.8606,0.8605,0.8604,0,0.8283,0.8332,0.8369,0.8383,0.8419,0.8436,0.8451,0.8477,0.8495,0.8522,0.8534,0.8564,0.8581,0.8603,0.8618,0.8607,0.8661,0.8649,0.867,0.8669,0.8682,0.8681,0.8731,0.869,0.869,0.869,0.869,0,0.8325,0.8356,0.8379,0.8402,0.8437,0.8451,0.8485,0.8501,0.8523,0.8549,0.8555,0.8579,0.8596,0.8622,0.8634,0.8669,0.8676,0.8684,0.8687,0.8684,0.8683,0.8695,0.8694,0.8692,0.8691,0.8691,0.8691,0,0.8355,0.8372,0.8413,0.8443,0.8452,0.8476,0.8502,0.8524,0.8538,0.857,0.8578,0.86,0.8631,0.8648,0.8686,0.8694,0.8733,0.8734,0.8725,0.8726,0.8746,0.8744,0.8806,0.8815,0.8768,0.8768,0.8768,0,0.8381,0.8405,0.8438,0.8456,0.8472,0.85,0.8519,0.8534,0.8554,0.8585,0.8603,0.8635,0.8661,0.871,0.8729,0.8758,0.876,0.878,0.8765,0.8761,0.8761,0.876,0.8762,0.8783,0.8783,0.8784,0.8784,0,0.8426,0.8433,0.846,0.8491,0.8513,0.8538,0.8562,0.8576,0.8594,0.8615,0.8647,0.8667,0.8707,0.8738,0.8768,0.8784,0.8787,0.8788,0.8795,0.8793,0.8786,0.8791,0.8733,0.8787,0.8787,0.8787,0.8787,0.8786,0.8455,0.8477,0.8504,0.8534,0.8553,0.8576,0.8598,0.8614,0.8641,0.8675,0.8681,0.8715,0.874,0.8782,0.8798,0.8824,0.882,0.8829,0.8832,0.8834,0.8835,0.8781,0.883,0.883,0.883,0.883,0.883,0,0.8501,0.8518,0.8545,0.8579,0.8603,0.8603,0.863,0.8649,0.8679,0.8702,0.8728,0.8764,0.8794,0.8815,0.8845,0.8862,0.8864,0.8869,0.8869,0.8872,0.8837,0.8829,0.8867,0.8867,0.8867,0.8867,0.8867,0.8867,0.8527,0.8564,0.8574,0.862,0.8637,0.867,0.8686,0.8706,0.8725,0.8765,0.879,0.8803,0.8826,0.8857,0.8885,0.889,0.8901,0.8906,0.8912,0.8879,0.8875,0.8871,0.8863,0.8909,0.8909,0.8945,0.8946,0.8946]},{"header":{"parameterUnit":"m.s-1","parameterCategory":1,"la1":30.2991,"la2":30.254,"lo1":-89.0895,"lo2":-89.0444,"dy":0.0017,"dx":0.0017,"nx":28,"ny":28,"refTime":"2025-12-27T03:00:00:Z","depth":0,"parameterNumber":3,"parameterNumberName":"V-component_of_WINDS"},"data":[0,0,0,0,0,0,0,0,0,0,0,0,0,0,0,0,0,0,0,0,0,0,0,0,0,0,0,0,0,0,0,0,0,0,0,0,0,0,0,0,0,0,0,0,0,0,0,0,0,0,0,0,0,0,0,0,0,0,1.5776,1.5775,0,1.569,1.5689,1.5688,1.5647,1.5647,1.5647,1.5647,1.5555,1.5553,1.555,0,0,0,0,0,0,0,0,0,0,0,0,0,1.5902,1.59,1.5777,1.5775,1.5774,1.569,1.5689,1.5688,1.5647,1.5647,1.5647,1.5647,1.5556,1.5553,1.555,0,0,0,0,0,0,0,0,0,0,0,0,0,1.5835,1.59,1.5777,1.5744,1.574,1.569,1.5689,1.5687,1.5647,1.5647,1.5647,1.5647,1.5557,1.5553,1.555,1.5524,0,0,1.5538,1.5537,0,0,0,0,0,0,0,0,1.5839,1.583,1.575,1.5746,1.5742,1.5679,1.5699,1.5633,1.5647,1.5682,1.5647,1.5648,1.5596,1.5589,1.5573,1.552,1.5516,1.5538,1.5536,1.5534,1.5533,0,0,0,0,0,0,0,1.5843,1.5834,1.5742,1.5749,1.5744,1.5732,1.5723,1.5686,1.564,1.5679,1.5676,1.5667,1.5594,1.5576,1.557,1.5515,1.5538,1.5535,1.5532,1.5531,1.5435,1.5435,0,0,0,0,0,0,1.5854,1.5838,1.5745,1.5739,1.5792,1.573,1.5719,1.5699,1.564,1.5631,1.5667,1.5665,1.5583,1.5575,1.5567,1.5532,1.5534,1.553,1.5528,1.5435,1.5435,1.5435,0,0,0,0,0,0,1.5857,1.5846,1.5748,1.5788,1.5774,1.5728,1.5706,1.5698,1.568,1.5631,1.5622,1.5658,1.5583,1.5572,1.5535,1.5529,1.5529,1.5525,1.5436,1.5435,1.5435,1.5464,0,0,0,0,0,0,1.5861,1.5847,1.5839,1.5788,1.5773,1.572,1.5705,1.5696,1.5674,1.5671,1.562,1.5611,1.5582,1.5541,1.5531,1.5524,1.5522,1.5436,1.5435,1.5435,1.5464,1.5465,1.5466,0,0,0,0,0,1.5865,1.585,1.5838,1.5827,1.5761,1.5719,1.571,1.5678,1.5674,1.5664,1.5631,1.5613,1.5531,1.5538,1.5526,1.5517,1.5436,1.5436,1.5435,1.5463,1.5465,1.5466,0,0,0,0,0,0,1.59,1.5843,1.5829,1.5797,1.5764,1.5713,1.5699,1.5681,1.5647,1.5645,1.5605,1.5594,1.556,1.5535,1.5543,1.5489,1.5482,1.5479,1.5507,1.5508,1.5509,1.5516,1.5519,0,0,0,0,0,1.5904,1.5877,1.5828,1.5804,1.5788,1.5746,1.5727,1.5705,1.5668,1.5653,1.5618,1.5582,1.5548,1.5526,1.5492,1.5459,1.5447,1.5447,1.5449,1.545,1.5448,1.5427,1.5427,1.5433,1.5433,1.5433,0,0,1.5912,1.5878,1.5863,1.581,1.5781,1.5752,1.5735,1.5705,1.5683,1.5648,1.5612,1.5584,1.5541,1.5506,1.5488,1.5483,1.5443,1.5449,1.545,1.5448,1.5427,1.5426,1.5426,1.5432,1.5432,1.5432,0,0,1.5912,1.5884,1.5861,1.5832,1.5789,1.5761,1.5756,1.5707,1.5688,1.565,1.5624,1.5595,1.5538,1.5508,1.5485,1.5471,1.5452,1.5461,1.5467,1.5448,1.5447,1.5447,1.5441,1.544,1.5459,1.5459,1.5459,0,1.5928,1.5884,1.5851,1.5822,1.5799,1.5767,1.5743,1.5716,1.5664,1.5648,1.5643,1.5569,1.5538,1.5495,1.5491,1.5474,1.5465,1.5467,1.545,1.5449,1.5448,1.5443,1.5441,1.5461,1.5461,1.546,1.546,0,1.5905,1.5875,1.5861,1.5812,1.5787,1.5761,1.5722,1.57,1.568,1.5652,1.5613,1.5574,1.5531,1.5519,1.5498,1.5472,1.547,1.5458,1.545,1.545,1.5444,1.5441,1.5463,1.5462,1.5462,1.5461,0,0,1.5926,1.5858,1.5853,1.583,1.5779,1.5755,1.5725,1.5684,1.5666,1.563,1.5604,1.5556,1.5544,1.5518,1.5494,1.5476,1.5467,1.5466,1.5465,1.5468,1.5434,1.5444,1.5442,1.5454,1.5453,1.5453,1.5438,0,1.5918,1.5867,1.5835,1.5796,1.5767,1.5735,1.571,1.5675,1.5647,1.5618,1.5587,1.5553,1.554,1.5524,1.5506,1.5472,1.546,1.5473,1.5428,1.5427,1.5441,1.5439,1.5449,1.5437,1.5435,1.5435,1.5435,0,1.5904,1.587,1.5828,1.5779,1.5766,1.5744,1.5703,1.5675,1.5634,1.5615,1.5585,1.556,1.5526,1.5521,1.5473,1.5483,1.5462,1.5443,1.5441,1.5436,1.5431,1.5433,1.5432,1.543,1.5431,1.5431,1.5431,0,1.5923,1.5866,1.5834,1.5815,1.5757,1.5742,1.5717,1.5676,1.5653,1.5616,1.56,1.556,1.5538,1.5506,1.547,1.5469,1.5425,1.5417,1.5408,1.5409,1.5401,1.5402,1.5396,1.5387,1.5387,1.5387,1.5387,0,1.5919,1.5894,1.5842,1.5822,1.5793,1.5755,1.5727,1.5699,1.5662,1.5635,1.5604,1.5579,1.5533,1.5501,1.5472,1.5437,1.5427,1.541,1.5402,1.5413,1.5415,1.5399,1.5399,1.5387,1.5387,1.5387,1.5387,0,1.5936,1.59,1.5862,1.581,1.5797,1.5777,1.5732,1.571,1.5681,1.5647,1.5636,1.559,1.5551,1.5511,1.5459,1.5439,1.5404,1.5394,1.5419,1.5414,1.5407,1.5409,1.5391,1.5387,1.5382,1.5382,1.5382,0,1.5936,1.5917,1.5863,1.5843,1.5819,1.5787,1.5763,1.5724,1.57,1.5651,1.5635,1.5593,1.5559,1.5498,1.5458,1.5417,1.5406,1.5403,1.54,1.541,1.5405,1.5407,1.5405,1.5404,1.5404,1.5405,1.5405,0,1.594,1.5922,1.589,1.5851,1.5823,1.579,1.5755,1.574,1.5694,1.5668,1.5629,1.5602,1.5548,1.5507,1.5461,1.5433,1.5411,1.5406,1.5401,1.5412,1.5427,1.5418,1.5422,1.5407,1.5406,1.5406,1.5406,1.5406,1.5948,1.5929,1.5888,1.5852,1.5822,1.579,1.5767,1.5734,1.5701,1.5655,1.5633,1.5593,1.555,1.5486,1.5459,1.5426,1.542,1.5414,1.5412,1.5411,1.5413,1.5432,1.5417,1.5417,1.5417,1.5417,1.5417,0,1.595,1.5922,1.5889,1.5842,1.5813,1.5795,1.5756,1.5732,1.5698,1.566,1.5627,1.558,1.554,1.5497,1.5453,1.5435,1.5423,1.5425,1.5426,1.542,1.5421,1.5429,1.5435,1.5435,1.5435,1.5435,1.5435,1.5435,1.5948,1.5914,1.5892,1.5842,1.5813,1.5774,1.5753,1.5723,1.5692,1.5642,1.5609,1.5581,1.5541,1.5494,1.5455,1.5443,1.5429,1.5433,1.5419,1.5421,1.542,1.5419,1.5426,1.543,1.543,1.5419,1.5419,1.5419]}]]